This demonstration page uses our WeatherBlox Daily Observations layout. Learn more.

Left ArrowRight Arrow

44.89941, -97.11507

Hourly Observations for November 26, 2016

Temp ( °F °C ) Dew Point ( °F °C ) Humidity (%) Winds ( mph kmh ) Pressure ( in mb ) Visibility ( mi km ) Precip ( " mm )
12:53 am 00:53 Clear 33 0.6 30 -1.1 89 89 SSE 12 19 30.11 1020 10 16 0.00 0.00
1:53 am 01:53 Clear 33 0.6 29 -1.7 85 85 SSE 9 15 30.09 1019 10 16 0.00 0.00
2:53 am 02:53 Clear 32 0 29 -1.7 88 88 SSE 8 13 30.08 1019 10 16 0.00 0.00
3:53 am 03:53 Clear 31 -0.6 28 -2.2 89 89 SSE 7 11 30.06 1018 10 16 0.00 0.00
4:53 am 04:53 Clear 30 -1.1 28 -2.2 92 92 SSE 8 13 30.06 1018 10 16 0.00 0.00
5:53 am 05:53 Clear 28 -2.2 26 -3.3 92 92 SSE 7 11 30.07 1018 10 16 0.00 0.00
6:53 am 06:53 Clear 27 -2.8 25 -3.9 92 92 Calm 30.07 1018 10 16 0.00 0.00
7:53 am 07:53 Sunny 26 -3.3 25 -3.9 96 96 S 6 9 30.07 1018 10 16 0.00 0.00
8:53 am 08:53 Sunny 29 -1.7 27 -2.8 92 92 S 5 7 30.06 1018 10 16 0.00 0.00
9:53 am 09:53 Sunny 32 0 30 -1.1 92 92 Calm 30.06 1018 10 16 0.00 0.00
10:53 am 10:53 Sunny 37 2.8 32 0 82 82 W 5 7 30.06 1018 10 16 0.00 0.00
11:53 am 11:53 Sunny 40 4.4 32 0 73 73 Calm 30.04 1017 10 16 0.00 0.00
12:53 pm 12:53 Sunny 41 5 33 0.6 73 73 Calm 30.03 1017 10 16 0.00 0.00
1:53 pm 13:53 Sunny 44 6.7 34 1.1 68 68 WSW 6 9 30.02 1017 10 16 0.00 0.00
2:53 pm 14:53 Sunny 45 7.2 33 0.6 63 63 NW 5 7 30.01 1016 10 16 0.00 0.00
3:53 pm 15:53 Sunny 45 7.2 34 1.1 66 66 Calm 30.00 1016 10 16 0.00 0.00
4:53 pm 16:53 Clear 39 3.9 33 0.6 79 79 Calm 30.01 1016 10 16 0.00 0.00
5:53 pm 17:53 Clear 37 2.8 32 0 82 82 Calm 30.03 1017 10 16 0.00 0.00
6:53 pm 18:53 Clear 34 1.1 31 -0.6 89 89 Calm 30.01 1016 10 16 0.00 0.00
7:53 pm 19:53 Clear 30 -1.1 28 -2.2 92 92 Calm 30.02 1017 9 14 0.00 0.00
8:53 pm 20:53 Clear with Mist and Fog 29 -1.7 29 -1.7 100 100 SSE 3 6 30.01 1016 6 10 0.00 0.00
9:53 pm 21:53 Clear with Mist and Fog 28 -2.2 27 -2.8 96 96 SE 3 6 30.00 1016 4 6 0.00 0.00
10:53 pm 22:53 Clear with Mist and Fog 28 -2.2 27 -2.8 96 96 Calm 29.98 1015 4 6 0.00 0.00
11:53 pm 23:53 Clear with Mist and Fog 26 -3.3 25 -3.9 96 96 Calm 29.97 1015 6 10 0.00 0.00

Powered by AerisWeather